Dewpoint
58 57 57 57 57 57 57 58 58 59 58 58 57 58 58 59 59 59 59 59 59 59 58 59 60 59 58 60 58 54 53 35 29 21 24 31 45 52 53 55 55 57 58 50 43 35 22 18 20 20 19 23 29 30 39 42 39 47 41 38 34 31 24 20 17 18 23 20 22 26 28 27 26 27 25 25 30 32 35 25 23 25 33 35 36 36 35 34
57 57 57 57 57 57 57 58 58 58 59 58 58 58 59 59 59 58 59 59 59 59 58 59 60 59 59 58 56 52 49 36 24 25 25 42 52 53 55 55 56 56 58 42 32 28 19 15 17 18 19 24 32 30 39 38 36 37 37 36 33 24 20 16 15 18 18 20 21 23 26 27 25 28 25 28 28 31 31 26 25 24 31 34 34 34 34 33
57 57 58 58 58 57 57 57 58 58 59 59 59 59 59 59 59 59 59 59 60 59 60 60 60 58 57 59 58 57 37 24 23 17 34 54 53 53 54 55 56 59 48 36 35 21 14 13 14 16 19 20 25 26 37 31 32 34 34 32 26 25 17 15 15 16 18 19 20 21 24 23 27 28 26 30 27 28 29 26 27 26 26 33 33 35 34 33
57 58 58 57 58 57 57 58 58 58 59 59 59 59 59 59 59 59 59 59 60 60 59 60 59 60 59 59 59 55 33 30 23 18 27 54 52 53 53 54 58 56 52 43 36 23 19 17 16 16 18 20 24 23 28 28 33 31 31 31 23 15 18 15 15 15 17 19 20 20 21 21 27 27 28 30 26 26 29 30 29 30 26 32 33 35 35 34
57 58 58 58 57 58 58 58 58 59 59 59 59 59 59 59 59 59 59 59 59 59 60 60 59 60 60 60 58 47 29 20 18 20 29 51 55 50 50 52 56 52 46 37 27 20 15 14 15 16 18 23 21 25 23 23 25 24 24 16 14 16 15 15 15 15 16 18 19 19 19 19 21 23 27 27 25 26 29 31 30 30 27 31 33 34 33 34
58 58 58 58 57 57 58 58 58 58 59 59 59 59 59 59 59 59 59 59 60 60 60 59 59 58 58 59 52 40 27 16 33 21 51 48 52 53 51 50 54 52 39 32 22 18 13 11 11 16 20 21 23 23 22 20 22 23 20 13 14 14 14 14 15 16 15 17 17 18 18 19 19 20 23 24 24 19 21 25 30 31 28 30 34 33 34 33
58 58 57 57 57 57 58 58 58 59 59 59 59 59 59 59 58 59 59 59 60 60 59 59 59 59 58 52 48 32 22 20 20 23 49 50 49 54 53 48 53 48 37 29 18 15 12 11 12 15 19 21 20 20 16 17 18 21 31 14 13 14 14 14 14 16 14 17 16 16 19 18 19 20 22 22 13 18 21 23 29 30 29 30 31 32 34 32
58 58 57 57 57 57 57 58 58 58 58 59 59 59 59 58 59 58 59 60 59 59 59 60 57 58 53 40 34 25 21 18 20 24 44 48 33 30 48 33 32 34 27 21 15 11 11 8 10 13 16 20 25 20 21 16 17 24 25 13 13 13 13 14 14 15 16 15 16 17 16 18 20 16 16 17 15 17 19 21 24 30 30 30 30 32 34 32
57 57 57 57 57 57 57 58 58 58 58 58 58 58 59 58 58 59 59 60 59 59 59 59 58 58 57 49 27 22 16 19 22 22 22 22 21 21 30 20 22 20 18 16 14 12 12 10 7 9 18 13 17 25 28 22 29 19 14 13 13 13 14 14 14 14 15 15 21 16 16 15 15 16 15 15 15 17 19 20 21 24 30 31 31 32 33 33
57 57 57 57 58 58 58 58 58 58 58 58 58 58 58 58 58 58 59 59 59 59 59 58 57 57 46 28 32 20 17 20 22 22 22 21 21 21 21 21 21 19 18 17 15 12 9 13 11 9 11 15 19 24 23 26 23 23 16 13 13 13 13 15 15 15 15 15 16 14 15 15 15 16 15 17 15 17 18 20 21 21 23 29 31 31 34 34
57 56 57 57 58 58 58 58 58 58 58 59 58 58 58 58 58 59 59 59 60 59 60 59 58 50 35 27 19 16 20 21 24 21 22 22 20 20 19 20 21 20 18 16 19 20 18 15 12 10 34 27 19 22 22 30 19 14 14 15 14 13 14 14 14 15 15 14 15 14 13 16 15 18 16 14 15 16 17 19 20 21 22 24 27 30 33 32
57 56 57 58 58 58 58 57 58 58 58 58 58 59 59 58 58 59 59 58 59 59 59 59 58 41 30 29 16 16 20 23 32 21 22 22 21 20 20 20 20 20 19 19 19 19 21 24 19 37 28 22 26 18 19 17 14 13 17 20 15 13 13 14 13 14 15 12 15 17 12 12 16 14 16 14 15 16 17 18 20 22 23 24 26 28 30 30
57 57 57 58 57 58 58 58 58 58 58 58 58 58 58 58 59 59 59 58 59 59 58 57 58 42 36 27 18 18 21 26 31 22 22 23 21 24 19 19 19 19 19 18 18 20 36 28 19 20 35 31 30 30 31 20 13 15 14 19 21 18 14 14 14 14 14 13 15 15 15 15 12 14 14 13 14 15 17 18 19 21 23 25 26 27 27 27
57 57 57 58 57 58 58 58 59 59 58 58 58 58 58 59 59 59 59 59 59 59 58 56 39 30 32 19 17 19 24 27 24 20 22 23 20 18 18 19 18 18 22 19 21 27 31 21 23 24 39 23 32 31 14 15 18 18 28 26 20 18 18 14 14 13 12 15 13 15 13 12 11 13 13 14 14 15 16 17 18 21 24 26 28 29 28 26
56 57 57 57 57 58 57 58 58 59 58 58 58 58 59 59 59 59 58 55 55 56 54 57 42 40 32 20 17 19 48 30 20 19 23 23 20 17 17 18 17 18 19 19 20 24 22 24 22 19 25 34 27 29 29 20 14 20 25 21 21 19 23 14 14 13 10 14 13 22 16 14 11 12 12 14 14 15 15 16 17 19 24 26 27 28 28 27
56 57 57 57 58 57 56 58 57 57 58 58 58 58 59 59 59 58 57 57 55 51 52 45 45 23 24 13 16 37 20 17 17 19 28 23 20 18 17 17 18 18 17 20 18 28 18 19 21 26 18 19 22 22 27 24 19 22 19 16 16 19 23 16 14 14 15 14 13 15 17 13 11 11 12 13 13 14 14 15 16 18 22 25 26 26 26 27
56 56 57 57 57 57 57 57 56 57 58 58 58 58 57 58 58 57 54 53 43 46 34 35 32 30 22 14 20 16 15 17 19 19 20 29 21 20 17 16 17 16 19 17 17 19 20 16 29 27 35 16 20 28 22 20 18 20 23 18 21 13 15 16 16 16 24 15 16 14 16 13 12 11 11 12 13 13 13 14 16 17 19 22 24 24 24 25
56 56 57 57 57 57 55 56 56 55 56 56 53 55 49 54 56 55 51 52 48 48 47 34 36 32 21 15 13 15 17 16 18 19 19 20 24 21 18 15 17 17 16 14 14 14 15 21 24 30 20 21 19 24 20 17 23 22 22 19 18 18 17 16 22 21 17 25 19 14 14 14 14 14 12 12 13 13 13 13 15 16 17 19 21 21 22 24
55 56 56 57 57 57 54 56 56 55 55 55 53 53 53 55 51 43 35 29 41 33 30 35 31 26 24 14 15 16 16 17 19 18 16 19 21 21 20 17 13 13 22 15 15 13 22 28 32 24 23 23 22 28 24 25 23 23 23 22 23 19 15 21 21 23 21 21 24 20 18 16 15 14 14 12 12 12 13 13 14 15 16 17 18 20 21 22
55 56 56 56 57 55 52 55 55 55 54 52 47 51 47 41 43 35 36 32 28 30 30 32 21 29 15 15 15 16 18 19 16 15 17 21 22 19 16 16 15 13 24 26 34 20 36 28 24 22 26 24 19 19 17 16 19 21 26 25 22 21 19 23 24 25 27 26 19 18 18 17 16 16 16 14 12 12 13 13 13 15 14 15 16 17 19 19
55 56 56 55 57 57 52 54 53 55 54 49 51 43 36 38 36 29 28 30 31 27 23 31 22 15 13 17 17 18 14 16 17 12 16 22 21 19 14 13 15 19 23 34 33 36 32 22 27 27 17 16 17 20 22 24 26 27 25 23 19 23 14 23 22 22 29 25 19 17 14 12 9 8 9 13 12 11 12 12 13 13 14 15 16 16 17 17
55 55 55 56 56 56 54 53 53 54 53 50 46 37 37 44 47 48 42 22 34 37 31 20 20 13 17 17 18 19 19 15 14 11 15 20 12 8 21 16 13 25 20 30 25 26 27 24 23 16 16 17 20 23 27 29 28 26 21 18 15 17 20 26 26 24 24 26 17 14 8 6 6 7 8 7 12 13 12 13 13 13 14 14 14 16 17 17
55 55 55 55 56 56 55 54 55 53 50 49 47 40 45 47 39 50 44 24 28 38 37 32 17 13 13 15 16 21 14 9 10 10 16 19 14 19 26 11 19 24 29 17 21 22 23 24 14 15 17 18 17 28 23 27 28 20 17 15 14 20 14 6 26 26 24 19 15 13 15 15 14 13 11 9 5 6 14 15 16 17 14 14 14 15 16 16
55 55 55 56 55 56 55 53 55 54 51 50 47 46 45 46 43 46 49 34 28 30 33 30 20 14 16 12 16 20 8 10 10 9 18 17 17 29 24 20 21 21 22 23 16 25 24 16 14 20 26 16 23 20 21 20 15 23 23 18 10 18 15 16 9 14 18 19 22 20 19 16 16 14 12 12 10 8 12 16 17 19 20 18 19 18 17 16
54 54 54 55 55 56 54 55 44 40 53 54 44 46 45 49 48 51 43 37 32 30 29 39 24 15 16 24 19 18 14 12 12 14 22 17 19 24 22 29 28 24 25 28 28 23 18 10 14 22 20 18 23 21 24 20 9 10 23 23 18 15 17 13 13 12 7 2 24 24 -0 -11 -4 -8 -12 -9 9 7 8 13 17 18 19 20 18 18 18 20
54 54 55 56 56 53 53 38 39 49 45 44 44 43 48 46 56 48 42 29 21 31 34 31 20 21 22 13 18 28 21 26 14 14 25 17 24 24 31 23 27 24 29 30 24 24 21 10 18 25 24 23 23 19 23 16 10 7 15 22 20 15 18 16 14 15 7 2 18 24 -1 2 -3 -4 -5 2 11 8 13 14 16 19 19 18 20 18 18 18
54 55 55 55 55 54 35 31 53 48 36 49 49 47 52 51 50 53 35 24 20 35 31 31 21 33 35 13 21 34 23 27 16 18 14 20 25 37 29 24 28 31 33 28 21 15 17 10 17 22 19 23 20 17 21 13 5 -0 16 19 19 20 16 16 17 15 8 14 16 21 9 3 4 4 5 2 13 13 12 15 18 16 15 17 17 18 19 18
53 53 54 55 54 52 46 44 46 45 47 49 49 46 50 50 53 54 39 16 10 36 27 32 27 34 22 16 17 15 13 29 25 18 25 20 30 29 26 31 30 28 25 23 13 24 23 20 19 22 21 19 12 17 18 20 7 15 21 24 21 20 18 19 16 12 11 8 10 4 20 9 10 5 5 7 1 3 4 5 14 16 16 16 18 19 19 20
54 52 53 53 52 51 50 50 49 46 45 49 48 49 52 55 47 32 19 14 30 32 41 28 37 26 26 25 20 28 31 33 18 31 31 28 27 30 26 31 28 25 28 28 22 18 28 25 20 25 20 9 20 13 18 17 11 26 23 25 23 25 23 22 14 11 6 3 7 7 14 3 1 -6 -15 4 4 4 2 -2 -6 3 16 18 20 20 20 20
54 53 51 53 49 47 50 51 51 50 48 48 52 51 53 50 41 28 17 9 34 26 29 31 25 30 37 32 33 20 16 24 29 29 31 27 17 20 32 34 29 28 25 30 28 28 25 30 29 27 20 15 14 17 22 18 18 24 25 21 19 20 17 16 13 9 7 6 9 14 13 5 -5 -6 -15 7 9 8 1 -2 -0 4 5 9 22 21 23 23
53 53 53 52 48 50 52 35 51 50 50 52 49 52 52 45 27 18 11 22 33 33 36 34 32 38 30 25 29 33 34 30 27 29 32 32 31 29 28 26 31 23 18 23 17 25 26 26 22 25 24 23 17 21 23 20 22 24 15 13 5 0 12 7 7 7 4 6 2 2 9 11 -7 -11 -8 1 4 2 1 -0 1 5 4 9 12 22 22 23
52 52 53 49 50 54 48 35 49 52 52 50 53 46 43 27 23 11 13 38 29 31 28 32 34 28 32 33 32 29 22 31 31 29 20 14 19 25 23 20 17 12 11 8 12 24 22 21 23 25 22 21 20 15 20 21 21 17 11 10 4 1 -3 -1 -1 3 6 5 -1 -1 10 -3 -6 -11 -8 -7 -7 -2 6 11 8 10 10 12 11 15 22 22
51 49 49 48 50 51 50 50 51 51 50 47 51 46 30 20 11 20 16 23 19 36 31 36 32 30 29 29 27 29 31 29 32 33 26 25 24 24 28 27 25 21 1 11 2 14 10 23 23 25 22 20 20 -2 6 11 13 11 7 1 -4 -4 -7 -8 -6 -7 -1 4 0 -7 2 -16 -16 -14 -10 -14 -14 -8 -3 8 10 8 8 10 14 17 19 24
51 51 44 45 47 47 49 51 51 50 48 51 46 38 26 16 13 30 19 16 29 36 31 31 33 31 30 22 30 27 22 29 27 25 28 22 22 16 20 26 26 27 20 4 -5 -12 3 6 13 19 6 21 16 7 9 4 4 5 11 -9 -1 -3 -9 -9 -6 -4 -1 4 -6 1 -10 2 -9 3 2 -5 -2 1 -1 -1 5 8 12 12 15 16 21 20
51 53 51 51 50 49 48 49 51 47 50 46 39 29 17 14 14 14 15 23 29 33 31 30 32 26 29 24 29 28 26 19 28 24 27 24 8 4 12 21 27 22 18 11 10 7 5 5 21 23 22 18 17 19 18 13 5 4 5 1 -0 5 -8 0 -2 -1 -2 1 -3 -3 -0 4 -2 -3 -2 -1 0 0 2 4 6 7 10 12 15 16 17 20
52 51 55 47 46 46 51 51 47 49 50 44 29 23 20 19 15 18 27 34 30 28 31 30 29 23 19 22 25 26 32 22 26 22 19 18 16 6 19 19 21 23 17 13 10 5 8 -11 20 24 26 9 9 20 18 11 1 -4 -9 1 1 5 -8 1 -2 -3 4 -2 -1 -1 -9 -10 -8 -7 -4 -1 -1 3 3 5 6 7 8 12 15 17 18 21
49 51 41 47 47 51 50 50 47 48 46 38 31 23 24 26 30 30 30 34 30 31 28 17 22 19 13 10 22 21 25 25 21 16 2 21 14 18 18 23 27 21 18 10 12 10 4 -3 21 18 14 20 21 19 22 22 17 2 -3 -9 14 9 7 -0 -2 -1 1 -0 -4 -5 0 2 -4 -0 -9 -10 -10 -2 0 1 4 7 9 12 14 16 18 20
47 44 46 44 47 49 50 51 49 48 44 41 28 29 26 27 31 34 34 31 31 28 22 21 21 25 11 3 6 10 27 16 24 15 13 20 8 21 20 24 24 20 22 24 17 15 7 3 14 18 21 23 25 20 16 21 20 -0 -2 16 5 1 -0 -6 -2 -4 -6 -4 -0 -1 0 5 3 4 -3 -1 0 -8 -5 -4 -1 -1 4 9 12 15 17 19
48 46 39 42 51 50 51 49 48 46 38 28 25 26 34 34 30 35 35 35 35 32 18 21 22 25 19 12 15 16 17 13 14 13 12 12 6 24 20 22 23 23 20 23 8 6 13 3 6 17 12 19 17 16 9 11 19 20 16 5 12 -6 6 -1 4 3 -1 -2 -5 -1 1 1 2 4 3 3 3 -0 -6 0 1 2 1 5 11 14 16 17
45 43 40 48 52 52 46 49 50 43 37 27 27 23 33 31 34 34 32 35 31 26 21 22 25 10 22 20 22 12 23 20 12 9 16 15 6 24 21 17 20 24 24 23 17 17 7 -8 4 14 21 13 4 9 3 9 11 7 4 5 6 1 3 2 5 5 4 -1 -2 -3 -4 1 -3 -1 5 3 -3 -6 -4 -0 0 2 6 10 8 13 14 17
46 40 42 49 51 53 51 51 43 31 29 27 31 33 32 35 34 32 35 36 34 35 28 30 26 13 24 15 20 18 15 18 15 16 15 16 7 13 16 14 22 20 20 19 11 7 7 -7 3 -2 6 5 -1 17 10 7 8 8 9 10 7 8 1 -4 -2 5 3 -2 -1 -3 -5 1 0 -2 -5 -4 1 -1 5 5 5 5 8 10 12 13 14 17
41 32 42 49 52 53 50 34 26 29 27 23 30 35 33 34 34 34 33 35 32 28 30 28 29 27 23 22 22 20 17 13 16 20 16 12 20 11 25 30 25 22 10 12 12 18 10 1 -4 5 -4 -1 3 11 15 16 16 16 8 7 8 12 8 2 -3 6 3 7 3 5 1 -1 2 -1 2 3 1 1 6 5 3 4 4 7 10 11 14 15
41 40 39 50 51 50 44 33 32 30 25 32 33 36 35 34 34 34 33 34 33 34 29 28 28 27 26 24 24 19 21 16 18 16 18 20 19 26 29 29 27 22 19 14 17 14 18 4 6 1 0 4 4 12 7 16 16 11 5 6 5 12 12 7 5 8 8 7 4 4 0 0 1 4 -1 0 -0 4 2 4 1 1 4 5 6 8 10 11
40 40 40 49 54 52 42 28 27 28 28 32 34 35 37 35 34 30 31 34 31 28 27 26 28 29 28 26 19 16 22 12 22 21 20 21 14 30 31 31 26 17 13 12 13 16 3 3 1 7 6 5 -1 -2 5 8 11 -3 2 1 5 9 13 12 9 6 2 5 3 -2 -3 -1 6 3 -2 -2 -4 -1 -3 0 1 -1 1 4 7 9 11 13
39 39 39 42 46 46 32 39 33 30 26 29 31 31 31 32 33 34 33 32 33 28 25 22 28 25 23 26 25 24 25 20 19 21 11 19 18 28 31 31 28 15 21 28 28 12 10 12 3 3 0 -1 -2 0 6 12 8 1 7 1 1 11 13 5 6 6 3 3 3 1 -1 -2 1 4 2 -2 -2 -3 1 -1 1 4 3 7 12 13 12 12
33 23 36 38 40 40 38 32 36 31 27 28 24 28 32 29 35 34 33 31 32 31 24 28 27 22 25 26 24 23 22 25 17 14 12 16 17 27 29 31 30 21 26 28 22 19 15 11 4 5 6 2 5 8 11 12 1 6 8 6 10 10 15 11 6 6 3 5 4 3 3 -1 -2 1 3 5 4 6 6 7 7 6 8 9 9 11 12 12
34 25 28 26 34 36 33 32 32 31 25 28 18 29 24 28 31 30 35 27 31 29 28 27 28 21 22 25 23 22 24 24 23 19 17 15 15 26 28 30 29 29 25 18 18 11 13 10 12 10 9 8 6 7 11 14 4 4 7 10 14 13 15 11 7 3 6 4 1 5 4 8 4 4 5 7 8 7 7 6 6 6 9 10 9 8 18 9
30 32 33 39 35 30 29 27 31 33 35 30 23 29 27 28 28 23 31 31 28 26 27 27 26 24 23 22 25 20 22 23 24 21 20 19 21 25 21 28 25 28 21 16 18 14 12 11 13 14 13 12 9 6 5 7 5 5 6 5 8 14 15 11 10 7 3 4 1 1 3 7 5 4 5 4 5 6 7 8 9 10 9 8 8 8 8 8
42 34 36 36 35 29 31 36 36 37 35 31 22 28 27 28 26 26 28 28 27 25 25 19 25 25 23 25 23 20 24 14 19 23 18 21 20 19 19 25 26 25 16 13 14 16 11 11 13 15 14 12 11 10 11 8 6 6 9 6 5 5 14 14 10 8 7 7 4 3 3 3 3 3 4 6 8 9 9 10 10 8 8 9 9 9 8 7
37 38 26 37 34 27 28 29 34 32 30 30 23 27 27 26 26 30 29 27 24 28 27 21 19 28 26 25 24 20 21 19 13 15 25 21 21 20 20 22 23 23 16 14 13 17 13 9 20 17 13 13 12 13 14 11 10 8 7 6 5 5 5 9 14 12 11 8 7 6 6 7 7 8 9 10 10 11 10 10 9 8 9 10 9 8 9 10
42 39 45 36 31 28 27 29 30 30 25 27 20 27 27 28 26 30 29 29 23 27 25 21 23 24 29 27 24 22 23 23 24 25 27 20 16 24 17 17 23 23 20 18 16 16 13 12 10 8 6 6 5 6 7 6 5 6 5 5 5 5 9 8 11 11 13 12 12 11 10 11 10 11 11 11 11 7 6 4 4 4 5 7 7 8 9 10
42 41 42 42 30 27 23 25 27 23 22 26 22 28 24 31 29 28 22 31 28 28 31 27 28 28 26 27 25 24 26 28 28 31 25 24 22 20 18 19 23 24 21 20 21 17 15 12 12 13 8 7 7 5 6 6 7 9 10 8 8 7 6 6 7 9 12 12 13 11 12 11 12 14 10 7 5 4 4 4 5 6 6 6 8 10 11 11